Weather reports worldwide

Advertisment
Gogerddan, United Kingdom (99150): temperature & dewpoint: 18.06.2017 23:00:00 - 24.06.2017 23:00:00 (BST)Gogerddan, United Kingdom (99150): temperature 5cm: 18.06.2017 23:00:00 - 24.06.2017 23:00:00 (BST)Gogerddan, United Kingdom (99150): temperature -20cm & temperature -100cm: 18.06.2017 23:00:00 - 24.06.2017 23:00:00 (BST)Gogerddan, United Kingdom (99150): wind speed: 18.06.2017 23:00:00 - 24.06.2017 23:00:00 (BST)Gogerddan, United Kingdom (99150): wind direction: 18.06.2017 23:00:00 - 24.06.2017 23:00:00 (BST)Gogerddan, United Kingdom (99150): visibility: 18.06.2017 23:00:00 - 24.06.2017 23:00:00 (BST)Gogerddan, United Kingdom (99150): precipitation: 18.06.2017 23:00:00 - 24.06.2017 23:00:00 (BST)
Date & Time tt [°C] td [°C] tt 5cm [°C] tt -20cm [°C] tt -100cm [°C] ff [km/h] ff [kn] dd vv [km] rr [mm]
24.06.2017 23:00:00 - - - - - - - - - 0,0
24.06.2017 22:00:00 15,3 13,0 - - - - - - - 0,0
24.06.2017 21:00:00 14,9 13,1 - - - - - - - 0,0
24.06.2017 20:00:00 14,9 13,4 - - - - - - - 0,0
24.06.2017 19:00:00 15,6 13,9 - - - - - - - 0,0
24.06.2017 18:00:00 16,7 14,5 - - - - - - - 0,0
24.06.2017 17:00:00 15,6 13,5 - - - - - - - 0,0
24.06.2017 16:00:00 16,5 14,0 - - - - - - - 0,0
24.06.2017 15:00:00 15,5 13,8 - - - - - - - 0,0
24.06.2017 14:00:00 15,1 13,5 - - - - - - - 0,0
24.06.2017 13:00:00 15,1 12,8 - - - - - - - 0,0
24.06.2017 12:00:00 15,2 13,0 - - - - - - - 0,0
24.06.2017 11:00:00 14,8 13,0 - - - - - - - 0,0
24.06.2017 10:00:00 14,3 12,9 - 15,9 14,5 83 45 N 4,0 0,0
24.06.2017 09:00:00 14,3 12,0 - - - - - - - 0,0
24.06.2017 08:00:00 14,4 12,2 - - - - - - - 0,0
24.06.2017 07:00:00 14,2 11,9 - - - - - - - 0,0
24.06.2017 06:00:00 14,4 12,8 - - - - - - - 0,0
24.06.2017 05:00:00 14,6 13,4 - - - - - - - 0,0
24.06.2017 04:00:00 14,8 13,6 - - - - - - - 0,0
24.06.2017 03:00:00 14,9 14,2 - - - - - - - 0,0
24.06.2017 02:00:00 15,0 14,3 - - - - - - - 0,0
24.06.2017 01:00:00 15,2 14,3 - - - - - - - 0,0
24.06.2017 00:00:00 15,1 14,5 - - - - - - - 0,0
23.06.2017 23:00:00 15,7 14,6 - - - - - - - 0,0
23.06.2017 22:00:00 15,5 14,5 - - - - - - 10 0,0
23.06.2017 21:00:00 15,7 14,6 - - - - - - - 0,0
23.06.2017 20:00:00 15,6 14,5 - - - - - - - 0,0
23.06.2017 19:00:00 15,5 14,4 - - - - - - - 0,0
23.06.2017 18:00:00 15,7 14,3 - - - - - - - 0,0
23.06.2017 17:00:00 15,4 14,4 - - - - - - - 0,4
23.06.2017 16:00:00 15,0 14,6 - - - - - - - 2,6
23.06.2017 15:00:00 15,0 14,5 - - - - - - - 5,2
23.06.2017 14:00:00 15,0 14,3 - - - - - - - 2,0
23.06.2017 13:00:00 15,0 14,2 - - - - - - - 0,4
23.06.2017 12:00:00 14,8 13,9 - - - - - - - 1,4
23.06.2017 11:00:00 15,0 13,5 - - - - - - - 0,2
23.06.2017 10:00:00 14,6 13,4 - 16,2 14,4 169 91 N 1,5 0,4
23.06.2017 09:00:00 14,2 13,7 - - - - - - - 4,2
23.06.2017 08:00:00 14,2 13,4 - - - - - - - 1,6
23.06.2017 07:00:00 14,3 13,0 - - - - - - - 0,4
23.06.2017 06:00:00 15,0 12,3 - - - - - - - 0,0
23.06.2017 05:00:00 14,7 11,7 - - - - - - - 0,0
23.06.2017 04:00:00 14,5 11,9 - - - - - - - 0,0
23.06.2017 03:00:00 14,2 11,4 - - - - - - - 0,0
23.06.2017 02:00:00 13,5 11,2 - - - - - - - 0,0
23.06.2017 01:00:00 13,4 11,0 - - - - - - - 0,0
23.06.2017 00:00:00 13,7 11,4 - - - - - - - 0,0
22.06.2017 23:00:00 14,1 11,3 - - - - - - - 0,0
22.06.2017 22:00:00 14,4 12,1 - - - - - - - 0,0
22.06.2017 21:00:00 15,1 11,6 - - - - - - - 0,0
22.06.2017 20:00:00 15,0 12,2 - - - - - - - 0,0
22.06.2017 19:00:00 16,3 13,0 - - - - - - - 0,0
22.06.2017 18:00:00 16,2 12,5 - - - - - - - 0,0
22.06.2017 17:00:00 16,3 13,2 - - - - - - - 0,0
22.06.2017 16:00:00 16,2 13,1 - - - - - - - 0,0
22.06.2017 15:00:00 17,0 13,0 - - - - - - - 0,0
22.06.2017 14:00:00 16,5 14,0 - - - - - - - 0,0
22.06.2017 13:00:00 15,9 14,3 - - - - - - - 0,0
22.06.2017 12:00:00 15,4 14,0 - - - - - - - 0,0
22.06.2017 11:00:00 15,3 14,8 - - - - - - - 0,0
22.06.2017 10:00:00 14,9 14,5 - 16,7 14,2 131 71 N 4,1 0,2
22.06.2017 09:00:00 15,7 14,7 - - - - - - - 0,0
22.06.2017 08:00:00 15,9 13,7 - - - - - - - 0,0
22.06.2017 07:00:00 15,7 13,0 - - - - - - - 0,0
22.06.2017 06:00:00 15,5 12,7 - - - - - - - 0,0
22.06.2017 05:00:00 15,4 12,7 - - - - - - - 0,0
22.06.2017 04:00:00 15,5 12,6 - - - - - - - 0,0
22.06.2017 03:00:00 15,8 13,1 - - - - - - - 0,0
22.06.2017 02:00:00 16,1 14,1 - - - - - - - 0,0
22.06.2017 01:00:00 16,4 16,1 - - - - - - - 0,0
22.06.2017 00:00:00 16,4 16,0 - - - - - - - 0,0
21.06.2017 23:00:00 16,7 16,0 - - - - - - - 0,0
21.06.2017 22:00:00 18,4 16,8 - - - - - - - 0,0
21.06.2017 21:00:00 19,9 16,8 - - - - - - - 0,0
21.06.2017 20:00:00 20,5 17,0 - - - - - - - 0,0
21.06.2017 19:00:00 21,9 17,6 - - - - - - - 0,0
21.06.2017 18:00:00 22,8 17,7 - - - - - - - 0,0
21.06.2017 17:00:00 24,2 17,9 - - - - - - - 0,0
21.06.2017 16:00:00 29,6 18,4 - - - - - - - 0,0
21.06.2017 15:00:00 26,5 20,0 - - - - - - - 0,0
21.06.2017 14:00:00 29,0 19,0 - - - - - - - 0,0
21.06.2017 13:00:00 27,0 17,4 - - - - - - - 0,0
21.06.2017 12:00:00 28,5 18,2 - - - - - - - 0,0
21.06.2017 11:00:00 26,8 18,0 - - - - - - - 0,0
21.06.2017 10:00:00 25,4 19,0 25,4 16,2 14,0 - - N 4,0 0,0
21.06.2017 09:00:00 23,3 17,8 - - - - - - - 0,0
21.06.2017 08:00:00 21,6 18,4 - - - - - - - 0,0
21.06.2017 07:00:00 20,4 17,9 - - - - - - - 0,0
21.06.2017 06:00:00 19,2 17,6 - - - - - - - 0,0
21.06.2017 05:00:00 18,3 16,9 - - - - - - - 0,0
21.06.2017 04:00:00 18,0 16,1 - - - - - - - 0,0
21.06.2017 03:00:00 20,0 17,3 - - - - - - - 0,0
21.06.2017 02:00:00 20,2 17,3 - - - - - - - 0,0
21.06.2017 01:00:00 21,5 18,2 - - - - - - - 0,0
21.06.2017 00:00:00 18,7 17,9 - - - - - - - 0,0
20.06.2017 23:00:00 18,1 16,9 - - - - - - - 0,0
20.06.2017 22:00:00 19,0 17,2 - - - - - - - 0,0
20.06.2017 21:00:00 19,9 17,4 - - - - - - - 0,0
20.06.2017 20:00:00 20,7 17,4 - - - - - - - 0,0
20.06.2017 19:00:00 21,5 18,1 - - - - - - - 0,0
20.06.2017 18:00:00 23,0 18,0 - - - - - - - 0,0
20.06.2017 17:00:00 25,8 19,9 - - - - - - - 0,0
20.06.2017 16:00:00 25,3 19,2 - - - - - - - 0,0
20.06.2017 15:00:00 27,0 19,3 - - - - - - - 0,0
20.06.2017 14:00:00 27,4 19,4 - - - - - - - 0,0
20.06.2017 13:00:00 25,9 19,1 - - - - - - - 0,0
20.06.2017 12:00:00 26,0 16,5 - - - - - - - 0,0
20.06.2017 11:00:00 25,1 17,9 - - - - - - - 0,0
20.06.2017 10:00:00 22,6 18,5 22,6 15,7 13,9 - - N 2,2 0,0
20.06.2017 09:00:00 20,3 16,6 - - - - - - - 0,0
20.06.2017 08:00:00 19,1 17,6 - - - - - - - 0,0
20.06.2017 07:00:00 16,9 16,2 - - - - - - - 0,0
20.06.2017 06:00:00 15,4 14,8 - - - - - - - 0,0
20.06.2017 05:00:00 15,6 15,2 - - - - - - - 0,0
20.06.2017 04:00:00 15,8 15,1 - - - - - - - 0,0
20.06.2017 03:00:00 16,6 16,0 - - - - - - - 0,0
20.06.2017 02:00:00 16,2 15,5 - - - - - - - 0,0
20.06.2017 01:00:00 17,0 16,1 - - - - - - - 0,0
20.06.2017 00:00:00 17,9 16,4 - - - - - - - -
19.06.2017 23:00:00 19,0 16,8 - - - - - - - 0,0
19.06.2017 22:00:00 19,8 16,5 - - - - - - - 0,0
19.06.2017 21:00:00 21,1 16,8 - - - - - - - 0,0
19.06.2017 20:00:00 22,5 16,9 - - - - - - - 0,0
19.06.2017 19:00:00 23,3 17,0 - - - - - - - 0,0
19.06.2017 18:00:00 24,0 17,1 - - - - - - - 0,0
19.06.2017 17:00:00 23,9 17,1 - - - - - - - 0,0
19.06.2017 16:00:00 24,1 16,5 - - - - - - - 0,0
19.06.2017 15:00:00 25,8 16,0 - - - - - - - 0,0
19.06.2017 14:00:00 25,8 16,3 - - - - - - - 0,0
19.06.2017 13:00:00 25,7 16,7 - - - - - - - 0,0
19.06.2017 12:00:00 26,3 17,5 - - - - - - - 0,0
19.06.2017 11:00:00 25,5 17,7 - - - - - - - 0,0
19.06.2017 10:00:00 23,9 18,1 24,0 15,2 13,7 83 45 N 1,0 0,0
19.06.2017 09:00:00 22,6 17,7 - - - - - - - 0,0
19.06.2017 08:00:00 19,5 15,3 - - - - - - - 0,0
19.06.2017 07:00:00 16,6 15,3 - - - - - - - 0,0
19.06.2017 06:00:00 13,5 12,6 - - - - - - - 0,0
19.06.2017 05:00:00 13,3 12,6 - - - - - - - 0,0
19.06.2017 04:00:00 13,9 12,8 - - - - - - - 0,0
19.06.2017 03:00:00 13,8 12,9 - - - - - - - 0,0
19.06.2017 02:00:00 13,3 12,5 - - - - - - - 0,0
19.06.2017 01:00:00 13,1 12,0 - - - - - - - 0,0
19.06.2017 00:00:00 14,1 12,1 - - - - - - - 0,0
18.06.2017 23:00:00 14,6 11,4 - - - - - - - 0,0

tt = temperature
td = dewpoint
tt 5cm = temperature 5cm
tt -20cm = temperature -20cm
tt -100cm = temperature -100cm
ff = wind speed
dd = wind direction
vv = visibility
rr = precipitation

Next stations